Tracking 30970 objects as of 3-Jul-2025
HD Live streaming from Space Station
objects crossing your sky now

ASIASAT 2 PKM

Track ASIASAT 2 PKM now!
10-day predictions


NORAD ID: 23725
Int'l Code: 1995-064C
Perigee: 284.1 km
Apogee: 16,729.2 km
Inclination: 25.8 °
Period: 301.0 minutes
Semi major axis: 14877 km
RCS: 4.944 m2 (large)
Launch date: November 28, 1995
Source: People's Republic of China (PRC)
Launch site: Xichang Space Center, China (XSC)

Note: This is a ROCKET BODY
Your satellite tracking list
NOAA 16 DEB
Track 1 satellite(s)




NASA's NSSDC Master Catalog

Two Line Element Set (TLE):
1 23725U 95064C   25183.60909596  .00006516  00000-0  91536-3 0  9991
2 23725  25.7525 234.1327 5526801 197.9068 130.2238  4.78410805430818
Source of the keplerian elements: AFSPC